Overview Statistics Trail Chart Weather Telemetry Raw packets
 

This is the latest recevied weather packets stored in our database for station/object GBTWP-2. If no packets are shown the sender has not sent any weather packets the latest 10 day(s).

<< 41 42 43 44 45 46 47 >>
Time Temp. Humidity Pressure Rain* Wind** Luminosity Snow
1788400919 24.44° C 86% 1016.3 hPa 0 mm - 0 W/m² -
1788400619 24.44° C 84% 1016.2 hPa 0 mm - 0 W/m² -
1788400319 24.44° C 83% 1016.3 hPa 0 mm - 0 W/m² -
1788400019 25° C 83% 1016.5 hPa 0 mm - 0 W/m² -
1788399719 25° C 83% 1016.5 hPa 0 mm - 0 W/m² -
1788399420 25° C 82% 1016.4 hPa 0 mm - 0 W/m² -
1788399119 25° C 82% 1016.5 hPa 0 mm - 0 W/m² -
1788398819 25° C 82% 1016.4 hPa 0 mm - 0 W/m² -
1788398520 25° C 83% 1016.2 hPa 0 mm - 0 W/m² -
1788398219 25° C 83% 1016.3 hPa 0 mm - 0 W/m² -
1788397919 25° C 83% 1016.2 hPa 0 mm - 0 W/m² -
1788397620 25.56° C 83% 1016.2 hPa 0 mm - 0 W/m² -
1788397320 25.56° C 83% 1016.1 hPa 0 mm - 0 W/m² -
1788397021 25.56° C 84% 1016 hPa 0 mm - 0 W/m² -
1788396719 25.56° C 84% 1016 hPa 0 mm - 0 W/m² -
1788396420 25.56° C 84% 1015.9 hPa 0 mm - 0 W/m² -
1788396119 25.56° C 84% 1015.5 hPa 0 mm - 0 W/m² -
1788395820 26.11° C 84% 1015.6 hPa 0 mm - 0 W/m² -
1788395519 26.11° C 84% 1015.5 hPa 0 mm - 0 W/m² -
1788395221 26.67° C 83% 1015.6 hPa 0 mm - 0 W/m² -
1788394918 27.22° C 81% 1015.4 hPa 0 mm - 0 W/m² -
1788394620 27.22° C 80% 1015.7 hPa 0 mm - 1 W/m² -
1788394319 28.33° C 78% 1015.5 hPa 0 mm - 1 W/m² -
1788394020 28.89° C 74% 1015.3 hPa 0 mm - 2 W/m² -
1788393719 29.44° C 70% 1015.2 hPa 0 mm - 3 W/m² -

* Rain latest hour (hover to see other rain measurements)
** Current wind speed in m/s (hover to see current wind gust speed)